STARLINK-31913, 59667

Orbit data source: Space-Track

STARLINK-31913, 59667 is a payload satellite owned by SpaceX/Seattle (US) in LEO that was launched on Mon, 06 May 2024 UTC via an FALCON 9 launch vehicle from the Air Force Eastern Test Range (AFETR). Payload-class satellites include a variety of spacecraft equipped with specific instruments for various scientific and technological missions. These include communications satellites like Starlink; space stations such as the ISS; scientific satellites like the Hubble; Earth observation satellites from companies like Planet Labs, Umbra, and HawkEye 360; GPS; miniature CubeSats for education and research; and military/defense satellites.

Loading next visibility...
Identifier
59667, 2024-084P
Orbit
LEO
Country
Flag of USUS
Related business
Manufacturer
SpaceX/Seattle
Mission
Operational Commercial Communications
Bus & Motor
STARLINK V2M, Unknown motor
Mass
730 kg wet, ~700 kg dry
Launch date (UTC)
2024-05-06 (2 years ago)
Launch vehicle
FALCON 9
Launch site
Air Force Eastern Test Range (AFETR)
Object type
Payload
Rocket body
Debris
Shape & HBR
Box + 2 Pan, 17.7 m
Radar Cross Section
33.884 m², Large (>1 m²)

Expand to show TLE details & history
Last TLE update: 18 hours ago

TLE from 18 hours ago
0 STARLINK-31913
1 59667U 24084P   25349.19868695  .00000787  00000-0  38122-4 0  9998
2 59667  43.0021 155.3011 0001488 276.5487  83.5195 15.27575782 91494
Epoch: 2025-12-15T04:46Z
TLE epoch observation values (Epoch: 2025-12-15T04:46:06.552Z)
Latitude
-0.00004°
Longitude
-0.32693°
Altitude
482.722 km
Speed
7.626 km/s
True Right ascension
10h 21m 12s
True Declination
0° 00' 00"
Sunlit
Object was in daylight at epoch
Visualization orbit readout
Latitude
Unknown
Longitude
Unknown
Altitude
Unknown
Speed
Unknown
Apparent Right ascension
Unknown
Apparent Declination
Unknown
Sunlit
N/A
Visualization observer readout
Local Sidereal Time
21:17:24
Azimuth
Unknown
Elevation
Unknown
Doppler factor
Unknown
Orbital elements
Apogee altitude
486.028 km
Perigee altitude
483.985 km
Semi-major axis
6,863.144 km
Eccentricity
0.00015
Inclination
43.0021°
RAAN
155.3011°
Arg. of periapsis
276.5487°
True anomaly
83.53644°
Mean anomaly
83.5195°
Eccentric anomaly
83.52797°
Mean motion
3.81732 °/min
Orbital period
94.31 mins
BSTAR
0.000038122
Loading maneuver chart data...
Computing Atmospheric mass density...
Loading historical data...
Loading historical data...
Loading historical data...
Loading historical data...
Loading historical data...
Loading historical data...
Loading historical data...

Documentation

Showing up to 5 results
|